Change the Weather History Date:

Tuesday, October 14, 2014

  Actual Average Record
Temperature  
Mean Temperature 64 °F 53 °F  
Max Temperature 69 °F 62 °F 83 °F (1975)
Min Temperature 59 °F 44 °F 27 °F (1937)
Degree Days  
Heating Degree Days 1 12  
Month to date heating degree days 150 142  
Since 1 July heating degree days 271 256  
Cooling Degree Days 0 0  
Month to date cooling degree days 0 7  
Year to date cooling degree days 704 802  
Growing Degree Days 14 (Base 50)    
Moisture  
Dew Point 59 °F    
Average Humidity 81    
Maximum Humidity 93    
Minimum Humidity 68    
Precipitation  
Precipitation 0.53 in 0.08 in 1.78 in (2003)
Month to date precipitation 1.65 1.17  
Year to date precipitation 33.78 26.87  
Snow  
Snow 0.00 in 0.00 in T in (1986)
Month to date snowfall 0.0 0.0  
Since 1 July snowfall 0.0 0.0  
Since 1 September snowfall 0.0 0.0  
Snow Depth 0.00 in    
Sea Level Pressure  
Sea Level Pressure 29.68 in    
Wind  
Wind Speed 10 mph (SE)    
Max Wind Speed 26 mph    
Max Gust Speed 33 mph    
Visibility 8 miles    
Events Rain    
T = Trace of Precipitation, MM = Missing Value Source: NWS Daily Summary

Daily Weather History Graph

Daily Weather History Graph

Search for Another Location

Airport or City:

Trip Planner

Search our weather history database for the weather conditions in past years. The results will help you decide how hot, cold, wet, or windy it might be!

Date:

Astronomy

Oct. 14, 2014 Rise Set
Actual Time 7:44 AM EDT 6:53 PM EDT
Civil Twilight 7:16 AM EDT 7:21 PM EDT
Nautical Twilight 6:44 AM EDT 7:53 PM EDT
Astronomical Twilight 6:11 AM EDT 8:26 PM EDT
Moon 11:54 PM EDT (10/14) 1:48 PM EDT (10/14)
Length of Visible Light 12h 04m
Length of Day
11h 08m
Waning Gibbous, 61% of the Moon is Illuminated
Oct 14
Waning Gibbous
Oct 15
Last Quarter
Oct 23
New
Oct 30
First Quarter
Nov 6
Full

Hourly Weather History & Observations

Time (EDT) Temp. Dew Point Humidity Pressure Visibility Wind Dir Wind Speed Gust Speed Precip Events Conditions
12:53 AM 66.9 °F 60.1 °F 79% 29.79 in 10.0 mi SE 11.5 mph 19.6 mph N/A   Overcast
1:53 AM 66.9 °F 60.1 °F 79% 29.77 in 10.0 mi SE 11.5 mph 19.6 mph N/A   Overcast
2:53 AM 66.9 °F 60.1 °F 79% 29.75 in 10.0 mi SE 11.5 mph 20.7 mph N/A   Overcast
3:53 AM 66.9 °F 57.9 °F 73% 29.73 in 10.0 mi SE 10.4 mph 18.4 mph N/A   Overcast
4:53 AM 66.2 °F 57.2 °F 73% 29.72 in 10.0 mi SE 10.4 mph 18.4 mph N/A   Overcast
5:53 AM 68.0 °F 57.0 °F 68% 29.70 in 10.0 mi SE 9.2 mph - N/A   Overcast
6:53 AM 68.0 °F 57.0 °F 68% 29.69 in 10.0 mi SSE 12.7 mph - N/A   Overcast
7:53 AM 66.9 °F 57.0 °F 70% 29.68 in 10.0 mi SE 11.5 mph 18.4 mph N/A   Overcast
8:53 AM 66.0 °F 57.9 °F 75% 29.69 in 10.0 mi SE 6.9 mph - N/A   Overcast
9:53 AM 66.9 °F 60.1 °F 79% 29.69 in 10.0 mi SSE 12.7 mph - 0.00 in Rain Light Rain
10:53 AM 68.0 °F 59.0 °F 73% 29.69 in 10.0 mi SE 12.7 mph 18.4 mph 0.00 in   Overcast
11:53 AM 68.0 °F 61.0 °F 78% 29.68 in 10.0 mi SE 6.9 mph - 0.01 in   Overcast
12:53 PM 69.1 °F 60.1 °F 73% 29.65 in 10.0 mi SE 12.7 mph 18.4 mph 0.00 in   Overcast
1:53 PM 68.0 °F 60.1 °F 76% 29.64 in 8.0 mi SE 6.9 mph - 0.00 in Rain Light Rain
2:53 PM 66.9 °F 61.0 °F 81% 29.61 in 10.0 mi ESE 5.8 mph - 0.02 in   Overcast
3:53 PM 66.0 °F 62.1 °F 87% 29.62 in 2.0 mi SSE 18.4 mph 26.5 mph 0.02 in Rain Rain
4:00 PM 66.2 °F 62.6 °F 88% 29.62 in 3.0 mi SE 10.4 mph 18.4 mph 0.01 in Rain Light Rain
4:29 PM 64.4 °F 62.6 °F 94% 29.63 in 2.0 mi SSE 8.1 mph - 0.01 in Rain Light Rain
4:31 PM 64.4 °F 62.6 °F 94% 29.63 in 1.8 mi SSE 8.1 mph - 0.01 in Rain Rain
4:40 PM 64.4 °F 62.6 °F 94% 29.63 in 2.5 mi SSE 6.9 mph - 0.04 in Rain Light Rain
4:53 PM 64.9 °F 63.0 °F 93% 29.64 in 4.0 mi SSW 18.4 mph 23.0 mph 0.06 in Rain Light Rain
5:28 PM 62.6 °F 59.0 °F 88% 29.67 in 2.0 mi South 9.2 mph - 0.02 in Rain Rain
5:53 PM 61.0 °F 57.9 °F 90% 29.67 in 2.0 mi South 13.8 mph 25.3 mph 0.12 in Rain Rain
6:10 PM 60.8 °F 57.2 °F 88% 29.64 in 6.0 mi SE 4.6 mph - 0.05 in Rain Light Rain
6:35 PM 60.8 °F 57.2 °F 88% 29.70 in 2.5 mi SSE 8.1 mph - 0.05 in Rain Rain
6:53 PM 59.0 °F 57.9 °F 96% 29.69 in 2.0 mi SE 6.9 mph - 0.12 in Rain Rain
7:13 PM 60.8 °F 57.2 °F 88% 29.67 in 7.0 mi East 4.6 mph - 0.03 in Rain Light Rain
7:53 PM 60.1 °F 57.0 °F 90% 29.68 in 6.0 mi ESE 9.2 mph - 0.04 in Rain Rain
8:11 PM 59.0 °F 57.2 °F 94% 29.68 in 9.0 mi East 9.2 mph - 0.01 in   Overcast
8:53 PM 59.0 °F 57.9 °F 96% 29.67 in 9.0 mi ESE 6.9 mph - 0.06 in Rain Light Rain
8:56 PM 59.0 °F 57.2 °F 94% 29.68 in 9.0 mi ESE 5.8 mph - 0.00 in Rain Light Rain
9:53 PM 59.0 °F 57.0 °F 93% 29.71 in 9.0 mi ESE 6.9 mph - 0.07 in Rain Light Rain
10:53 PM 59.0 °F 57.0 °F 93% 29.69 in 10.0 mi SE 6.9 mph - 0.01 in Rain Light Rain
11:53 PM 59.0 °F 57.0 °F 93% 29.70 in 10.0 mi ESE 8.1 mph - 0.00 in   Overcast